Location: Unspecified
(48.8656°N, 0.0000°E)
Time: 09:44:15
(UTC+00:00)

Altair - Pass Details

Date: 20 June 2019
Orbit: 1501 x 1683 km, 47.2° (Epoch: 16 August)

Event Time Altitude Azimuth Distance (km) Brightness Sun altitude
Rises 23:48:34 0° 272° (W) 4,797 10.2 -17.6°
Reaches altitude 10° 23:51:37 10° 272° (W) 3,835 9.6 -17.7°
Maximum altitude 00:01:28 81° 187° (S) 1,674 7.5 -17.7°
Drops below altitude 10° 00:11:37 10° 102° (ESE) 3,940 9.5 -17.7°
Sets 00:14:48 0° 102° (ESE) 4,933 10.1 -17.6°
